Defiance, OH

8:54 AM EST on February 26, 2017 (GMT -0500)
Defiance Memorial

Weather History for KDFI - October, 2011

Change the Weather History Date:

Friday, October 14, 2011

  Actual Average Record
Temperature  
Mean Temperature 56 °F -  
Max Temperature 60 °F 64 °F 84 °F (1940)
Min Temperature 50 °F 39 °F 25 °F (1980)
Degree Days  
Heating Degree Days 8    
Growing Degree Days 6 (Base 50)    
Moisture  
Dew Point 47 °F    
Average Humidity 72    
Maximum Humidity 94    
Minimum Humidity 39    
Precipitation  
Precipitation 0.09 in - - ()
Sea Level Pressure  
Sea Level Pressure 29.50 in    
Wind  
Wind Speed 7 mph (West)    
Max Wind Speed 16 mph    
Max Gust Speed 29 mph    
Visibility 9 miles    
Events Rain    
Averages and records for this station are not official NWS values.
T = Trace of Precipitation, MM = Missing Value Source: NWS Daily Summary

Daily Weather History Graph

Daily Weather History Graph

Search for Another Location

Airport or City:

Trip Planner

Search our weather history database for the weather conditions in past years. The results will help you decide how hot, cold, wet, or windy it might be!

Date:

Astronomy

Oct. 14, 2011 Rise Set
Actual Time 7:48 AM EDT 6:58 PM EDT
Civil Twilight 7:20 AM EDT 7:26 PM EDT
Nautical Twilight 6:48 AM EDT 7:58 PM EDT
Astronomical Twilight 6:16 AM EDT 8:30 PM EDT
Moon 8:09 PM EDT (10/14) 10:18 AM EDT (10/14)
Length of Visible Light 12h 06m
Length of Day
11h 10m
Waning Gibbous, 94% of the Moon is Illuminated
Oct 14
Waning Gibbous
Oct 19
Last Quarter
Oct 26
New
Nov 2
First Quarter
Nov 10
Full

Hourly Weather History & Observations

Time (EDT) Temp. Dew Point Humidity Pressure Visibility Wind Dir Wind Speed Gust Speed Precip Events Conditions
12:06 AM 59.0 °F 55.4 °F 88% 29.42 in 2.5 mi West 5.8 mph - 0.03 in Rain Rain
12:13 AM 59.0 °F 55.4 °F 88% 29.42 in 3.0 mi West 9.2 mph - 0.04 in Rain Light Rain
12:24 AM 59.0 °F 55.4 °F 88% 29.42 in 5.0 mi Variable 6.9 mph - 0.05 in Rain Light Rain
12:40 AM 57.2 °F 55.4 °F 94% 29.42 in 10.0 mi Variable 6.9 mph - 0.05 in Rain Light Rain
12:53 AM 57.9 °F 54.0 °F 87% 29.42 in 10.0 mi Variable 5.8 mph - 0.06 in Rain Light Rain
1:53 AM 55.9 °F 53.1 °F 90% 29.42 in 10.0 mi Variable 5.8 mph - 0.00 in   Overcast
2:53 AM 55.9 °F 51.1 °F 84% 29.43 in 10.0 mi WSW 6.9 mph - N/A   Overcast
3:53 AM 55.9 °F 52.0 °F 87% 29.43 in 10.0 mi WSW 4.6 mph - N/A   Mostly Cloudy
4:13 AM 55.4 °F 51.8 °F 88% 29.42 in 10.0 mi West 6.9 mph - N/A   Mostly Cloudy
4:53 AM 55.9 °F 51.1 °F 84% 29.43 in 10.0 mi Variable 6.9 mph - N/A   Mostly Cloudy
5:53 AM 55.9 °F 50.0 °F 80% 29.44 in 10.0 mi WSW 9.2 mph - N/A   Overcast
6:53 AM 55.0 °F 48.9 °F 80% 29.46 in 10.0 mi WSW 9.2 mph - N/A   Overcast
7:53 AM 54.0 °F 48.0 °F 80% 29.48 in 10.0 mi Variable 5.8 mph 16.1 mph N/A   Overcast
9:53 AM 54.0 °F 46.9 °F 77% 29.50 in 10.0 mi WSW 9.2 mph - N/A   Overcast
10:53 AM 55.9 °F 45.0 °F 67% 29.51 in 10.0 mi West 12.7 mph 24.2 mph N/A   Mostly Cloudy
11:04 AM 55.4 °F 44.6 °F 67% 29.52 in 10.0 mi West 13.8 mph 24.2 mph N/A   Overcast
12:53 PM 57.0 °F 39.9 °F 53% 29.53 in 10.0 mi West 8.1 mph 20.7 mph N/A   Mostly Cloudy
1:53 PM 60.1 °F 39.9 °F 47% 29.53 in 10.0 mi West 16.1 mph 28.8 mph N/A   Mostly Cloudy
4:53 PM 60.1 °F 35.1 °F 39% 29.56 in 10.0 mi West 9.2 mph 19.6 mph N/A   Mostly Cloudy
5:53 PM 59.0 °F 36.0 °F 42% 29.57 in 10.0 mi West 8.1 mph 20.7 mph N/A   Overcast
6:53 PM 57.9 °F 37.0 °F 46% 29.58 in 10.0 mi Variable 5.8 mph - N/A   Mostly Cloudy
7:53 PM 57.0 °F 39.0 °F 51% 29.59 in 10.0 mi Calm Calm - N/A   Overcast
8:53 PM 53.1 °F 43.0 °F 69% 29.61 in 10.0 mi WSW 8.1 mph - 0.02 in   Mostly Cloudy
9:53 PM 53.1 °F 39.9 °F 61% 29.61 in 10.0 mi WSW 5.8 mph - N/A   Partly Cloudy
10:53 PM 53.1 °F 39.9 °F 61% 29.62 in 10.0 mi WNW 6.9 mph - 0.00 in   Overcast
11:53 PM 50.0 °F 42.1 °F 74% 29.63 in 10.0 mi Variable 3.5 mph - 0.01 in Rain Light Rain